W5DNT Weather Reports


time (UTC)temp
C
wind
direction
speed
KPH
gust
KPH
rain 1hr
cm
rain 24hr
cm
rain mn
cm
humidity
%
barometer
mb
20260506201557 13 327 4.8 17.7 0.00 0.00 0.00 83 1013.4
20260506200057 13 344 3.2 16.1 0.00 0.00 0.00 83 1013.6
20260506194626 13 313 6.4 16.1 0.00 0.00 0.00 83 1013.7
20260506193104 12 331 6.4 19.3 0.00 0.00 0.00 83 1013.6
20260506191555 12 349 3.2 16.1 0.00 0.00 0.00 82 1013.6
20260506190100 12 322 3.2 12.9 0.00 0.00 0.00 83 1013.7
20260506184554 12 349 1.6 22.5 0.00 0.00 0.00 82 1013.7
20260506183053 12 340 6.4 17.7 0.00 0.00 0.00 82 1013.6
20260506181552 12 324 4.8 17.7 0.00 0.00 0.00 83 1013.5
20260506174553 12 355 0.0 19.3 0.00 0.00 0.00 82 1013.5
20260506173056 12 344 4.8 19.3 0.00 0.00 0.00 82 1013.6
20260506171554 12 312 4.8 16.1 0.00 0.00 0.00 82 1013.4
20260506164548 11 355 0.0 6.4 0.00 0.00 0.00 82 1013.2
20260506163105 12 314 4.8 19.3 0.00 0.00 0.00 82 1012.4
20260506161544 11 355 8.0 25.7 0.00 0.00 0.00 81 1011.7
20260506160042 12 348 4.8 16.1 0.00 0.00 0.00 81 1012.6
20260506154557 11 345 0.0 3.2 0.00 0.00 0.00 81 1011.6
20260506153046 -17 0.0 0.0 0.00 0.00 0.00 1013.2
20260506151533 -17 0.0 0.0 0.00 0.00 0.00 1010.8
20260506150030 -17 0.0 0.0 0.00 0.00 0.00 1012.8
20260506144526 -17 0.0 0.0 0.00 0.00 0.00 1012.6
20260506143021 -17 0.0 0.0 0.00 0.00 0.00 1013.1
20260506141517 -17 0.0 0.0 0.00 0.00 0.00 1013.5
20260506140013 -17 0.0 0.0 0.00 0.00 0.00 1013.8
20260506134508 -17 0.0 0.0 0.00 0.00 0.00 1012.5
20260506133004 -17 0.0 0.0 0.00 0.00 0.00 1011.5
20260506131601 -17 0.0 0.0 0.00 0.00 0.00 1011.2
20260506130057 -17 0.0 0.0 0.00 0.00 0.00 1011.2
20260506124551 -17 0.0 0.0 0.00 0.00 0.00 1011.0
20260506123046 -17 0.0 0.0 0.00 0.00 0.00 1010.6
20260506121544 -17 0.0 0.0 0.00 0.00 0.00 1010.7
20260506120038 15 330 3.2 17.7 0.00 0.00 0.00 78 1010.2
20260506114543 15 306 1.6 14.5 0.00 0.00 0.00 78 1010.1
20260506113033 15 324 0.0 8.0 0.00 0.00 0.00 78 1010.1
20260506111536 15 333 0.0 1.6 0.00 0.00 0.00 77 1009.9
20260506110031 15 333 0.0 8.0 0.00 0.00 0.00 77 1009.8
20260506104527 15 325 0.0 12.9 0.00 0.00 0.00 77 1009.3
20260506103025 16 344 1.6 9.7 0.00 0.00 0.00 77 1009.2
20260506101527 16 327 0.0 8.0 0.00 0.00 0.00 77 1009.0
20260506100021 16 342 0.0 8.0 0.00 0.00 0.00 77 1008.8
20260506094520 16 332 0.0 3.2 0.00 0.00 0.00 76 1008.6
20260506093018 16 327 0.0 1.6 0.00 0.00 0.00 76 1008.6
20260506091514 16 342 0.0 12.9 0.00 0.00 0.00 76 1008.4
20260506090013 17 321 0.0 1.6 0.00 0.00 0.00 76 1008.3
20260506084512 17 333 0.0 6.4 0.00 0.00 0.00 75 1008.3
20260506083007 17 313 0.0 8.0 0.00 0.00 0.00 75 1008.2
20260506081505 18 304 0.0 12.9 0.00 0.00 0.00 75 1008.1
20260506073002 18 346 0.0 0.0 0.00 0.00 0.00 74 1007.8
20260506071500 18 338 0.0 0.0 0.00 0.00 0.00 74 1007.8
20260506070110 18 304 0.0 0.0 0.00 0.00 0.00 74 1007.9
20260506061558 19 304 0.0 0.0 0.00 0.00 0.00 73 1007.8
20260506044546 21 346 0.0 1.6 0.00 0.00 0.00 71 1007.6
20260506043040 21 344 0.0 8.0 0.00 0.00 0.00 71 1007.5
20260506041536 22 340 1.6 12.9 0.00 0.00 0.00 71 1007.4
20260506040052 23 348 0.0 16.1 0.00 0.00 0.00 71 1007.1
20260506034535 25 321 0.0 0.0 0.00 0.00 0.00 72 1006.7
20260506033033 25 355 0.0 1.6 0.00 0.00 0.00 72 1006.5
20260506031547 25 176 0.0 1.6 0.00 0.00 0.00 76 1005.7
20260506030032 25 360 0.0 3.2 0.00 0.00 0.00 72 1005.6
20260506024532 25 144 0.0 1.6 0.00 0.00 0.00 74 1004.7
20260506023032 25 141 0.0 0.0 0.00 0.00 0.00 74 1004.6
20260506021533 26 141 0.0 0.0 0.00 0.00 0.00 73 1004.3
20260506020030 26 141 0.0 0.0 0.00 0.00 0.00 71 1004.2
20260506014630 26 136 0.0 0.0 0.00 0.00 0.00 70 1003.9
20260506013029 27 152 0.0 0.0 0.00 0.00 0.00 69 1003.6
20260506011529 27 152 0.0 0.0 0.00 0.00 0.00 67 1003.5
20260506010029 28 155 0.0 0.0 0.00 0.00 0.00 67 1003.4
20260506004528 28 155 0.0 0.0 0.00 0.00 0.00 66 1003.2
20260506003027 28 156 0.0 1.6 0.00 0.00 0.00 65 1003.4
20260506001527 29 138 0.0 1.6 0.00 0.00 0.00 65 1003.4
20260506000027 30 139 0.0 1.6 0.00 0.00 0.00 65 1003.5
20260505234527 30 152 0.0 8.0 0.00 0.00 0.00 64 1003.4
20260505233025 30 200 0.0 8.0 0.00 0.00 0.00 63 1003.3
20260505231530 31 148 0.0 9.7 0.00 0.00 0.00 60 1003.2
20260505230030 32 186 0.0 4.8 0.00 0.00 0.00 58 1003.2
20260505224524 32 164 0.0 0.0 0.00 0.00 0.00 51 1003.2
20260505223023 32 306 0.0 8.0 0.00 0.00 0.00 53 1003.2
20260505221522 32 172 0.0 1.6 0.00 0.00 0.00 50 1003.1
20260505220020 32 159 0.0 8.0 0.00 0.00 0.00 51 1003.2
20260505214522 32 175 0.0 4.8 0.00 0.00 0.00 52 1003.4
20260505213019 32 170 0.0 1.6 0.00 0.00 0.00 52 1003.3
20260505211517 32 169 0.0 8.0 0.00 0.00 0.00 53 1003.4
20260505210020 32 156 0.0 0.0 0.00 0.00 0.00 56 1003.6
20260505204511 31 163 0.0 1.6 0.00 0.00 0.00 56 1004.0
20260505203009 31 136 0.0 1.6 0.00 0.00 0.00 59 1003.9